Tracking 29781 objects as of 14-Oct-2024
HD Live streaming from Space Station
objects crossing your sky now

SL-12 R/B(2)

Track SL-12 R/B(2) now!


NORAD ID: 20502
Int'l Code: 1990-016D
Perigee: 35,688.3 km
Apogee: 36,045.2 km
Inclination: 13.1 °
Period: 1,439.8 minutes
Semi major axis: 42237 km
RCS: 3.9952 m2 (large)
Launch date: February 15, 1990
Source: Commonwealth of Independent States (former USSR) (CIS)
Launch site: TYURATAM MISSILE AND SPACE COMPLEX (TTMTR)

Note: This is a ROCKET BODY
Your satellite tracking list
Your tracking list is empty




NASA's NSSDC Master Catalog

Two Line Element Set (TLE):
1 20502U 90016D   24288.20433066  .00000081  00000-0  00000-0 0  9992
2 20502  13.0911 339.4559 0042249 226.3123 307.6126  1.00011909126650
Source of the keplerian elements: AFSPC